Montreal Mirabel, Quebec

7:14 AM EDT on May 20, 2018 (GMT -0400)
Montreal Mirabel

Weather History for CYMX - August, 2013

Change the Weather History Date:

Thursday, August 15, 2013

  Actual Average Record
Temperature  
Mean Temperature 61 °F -  
Max Temperature 71 °F 75 °F 86 °F (2001)
Min Temperature 51 °F 55 °F 50 °F (1999)
Degree Days  
Heating Degree Days 4    
Growing Degree Days 11 (Base 50)    
Moisture  
Dew Point 53 °F    
Average Humidity 75    
Maximum Humidity 94    
Minimum Humidity 57    
Precipitation  
Precipitation 0.00 in - - ()
Sea Level Pressure  
Sea Level Pressure 29.98 in    
Wind  
Wind Speed 6 mph ()    
Max Wind Speed 13 mph    
Max Gust Speed 25 mph    
Averages and records for this station are not official NWS values.
T = Trace of Precipitation, MM = Missing Value Source: Averaged Metar Reports

Daily Weather History Graph

Daily Weather History Graph

Search for Another Location

Airport or City:

Astronomy

Aug. 15, 2013 Rise Set
Actual Time 5:56 AM EDT 8:03 PM EDT
Civil Twilight 5:24 AM EDT 8:35 PM EDT
Nautical Twilight 4:44 AM EDT 9:15 PM EDT
Astronomical Twilight 3:59 AM EDT 9:59 PM EDT
Moon 3:23 PM EDT (8/15) No Moon Set
Length of Visible Light 15h 11m
Length of Day
14h 06m
Waxing Gibbous, 64% of the Moon is Illuminated
Aug 15
Waxing Gibbous
Aug 20
Full
Aug 28
Last Quarter
Sep 5
New
Sep 12
First Quarter

Hourly Weather History & Observations

Time (EDT) Temp. Dew Point Humidity Pressure Visibility Wind Dir Wind Speed Gust Speed Precip Events Conditions
12:00 AM 55.4 °F 48.2 °F 77% 29.95 in 25.0 mi WSW 3.5 mph - N/A   Mostly Cloudy
1:00 AM 55.4 °F 50.0 °F 82% 29.96 in 25.0 mi WSW 4.6 mph - N/A   Mostly Cloudy
2:00 AM 55.4 °F 50.0 °F 82% 29.96 in 25.0 mi WSW 5.8 mph - N/A   Mostly Cloudy
3:00 AM 51.8 °F 50.0 °F 94% 29.96 in 25.0 mi WSW 2.3 mph - N/A   Scattered Clouds
4:00 AM 51.8 °F 50.0 °F 94% 29.96 in 25.0 mi WSW 4.6 mph - N/A   Scattered Clouds
5:00 AM 51.8 °F 50.0 °F 94% 29.96 in 25.0 mi WSW 4.6 mph - N/A   Partly Cloudy
6:00 AM 51.8 °F 50.0 °F 94% 29.97 in 45.0 mi WSW 4.6 mph - N/A   Partly Cloudy
7:00 AM 51.8 °F 50.0 °F 94% 29.99 in 35.0 mi WSW 4.6 mph - N/A   Partly Cloudy
8:00 AM 53.6 °F 51.8 °F 94% 29.99 in 45.0 mi WSW 8.1 mph - N/A   Partly Cloudy
9:00 AM 59.0 °F 53.6 °F 82% 29.99 in 45.0 mi SW 8.1 mph 17.3 mph N/A   Partly Cloudy
10:00 AM 62.6 °F 55.4 °F 77% 30.00 in 45.0 mi SW 10.4 mph 18.4 mph N/A   Scattered Clouds
11:00 AM 66.2 °F 55.4 °F 68% 29.99 in 45.0 mi SW 6.9 mph 23.0 mph N/A   Partly Cloudy
12:00 PM 69.8 °F 57.2 °F 64% 29.98 in 45.0 mi WSW 11.5 mph 21.9 mph N/A   Partly Cloudy
1:00 PM 71.6 °F 55.4 °F 57% 29.98 in 45.0 mi SW 12.7 mph 21.9 mph N/A   Partly Cloudy
2:00 PM 71.6 °F 57.2 °F 60% 29.98 in 45.0 mi SW 11.5 mph - N/A   Scattered Clouds
3:00 PM 71.6 °F 57.2 °F 60% 29.97 in 45.0 mi SW 12.7 mph 25.3 mph N/A   Partly Cloudy
4:00 PM 71.6 °F 55.4 °F 57% 29.96 in 45.0 mi SW 11.5 mph 23.0 mph N/A   Scattered Clouds
5:00 PM 71.6 °F 55.4 °F 57% 29.96 in 45.0 mi WSW 9.2 mph 19.6 mph N/A   Mostly Cloudy
6:00 PM 69.8 °F 55.4 °F 60% 29.97 in 45.0 mi SW 10.4 mph 17.3 mph N/A   Mostly Cloudy
7:00 PM 69.8 °F 55.4 °F 60% 29.98 in 45.0 mi SW 8.1 mph - N/A   Mostly Cloudy
8:00 PM 64.4 °F 53.6 °F 68% 30.00 in 25.0 mi SW 6.9 mph - N/A   Partly Cloudy
9:00 PM 64.4 °F 55.4 °F 73% 30.02 in 25.0 mi SW 6.9 mph - N/A   Partly Cloudy
10:00 PM 62.6 °F 55.4 °F 77% 30.04 in 25.0 mi SW 6.9 mph - N/A   Partly Cloudy
11:00 PM 62.6 °F 55.4 °F 77% 30.04 in 25.0 mi WSW 4.6 mph - N/A   Mostly Cloudy